Wetbulb
56.25 55.32 55.03 54.85 54.25 54.30 54.73 54.59 55.00 55.34 56.11 55.82 55.84 55.48 55.09 54.94 54.59 52.39 49.11 55.04 56.83 58.01 55.32 53.69 54.66 54.53 53.63 51.03 51.19 50.56 43.73 41.78 44.02 44.17 45.53 48.80 46.90 49.77 50.55 49.63 50.97 53.24 53.87 57.39 63.08
56.65 56.55 55.63 55.17 55.41 54.65 53.77 54.35 54.56 55.42 54.57 54.94 55.54 54.47 54.18 54.11 49.51 46.80 55.07 54.27 55.42 57.64 53.41 50.63 49.72 52.08 49.38 49.27 48.74 45.44 41.58 42.83 47.28 47.75 46.19 47.87 47.66 49.43 48.71 48.71 49.64 51.96 55.94 59.21 60.97
56.04 56.15 56.28 56.30 56.22 55.40 54.57 54.42 55.01 55.02 54.28 53.29 54.77 55.13 53.90 53.13 45.92 44.95 54.98 56.31 59.17 57.39 56.11 54.18 50.77 50.55 47.07 49.08 47.66 45.88 41.68 45.38 45.13 46.37 46.95 46.57 47.12 49.43 48.28 48.15 50.65 50.66 54.26 57.73 59.29
55.68 55.70 55.99 56.03 55.85 55.83 55.78 54.98 54.82 54.59 54.11 53.46 53.33 55.03 53.79 50.66 36.66 49.69 53.29 53.95 59.14 59.38 54.09 52.46 49.04 46.92 45.15 44.33 47.80 42.84 45.64 46.17 46.10 46.32 46.30 45.68 48.24 47.36 48.53 49.49 51.13 52.43 55.29 57.86 58.02
54.91 54.50 54.74 54.92 55.19 55.62 55.70 55.71 55.21 55.02 54.03 53.81 54.11 53.48 51.56 44.92 44.76 51.45 52.03 54.75 57.56 56.93 51.29 51.29 48.37 47.09 43.47 45.03 45.94 43.95 44.96 45.97 46.78 46.15 46.43 47.31 46.52 46.71 47.73 50.87 50.54 51.33 53.02 55.94 57.45
54.13 53.97 53.67 54.02 54.38 54.66 55.24 55.64 55.47 55.62 55.67 54.18 53.74 53.29 48.02 38.98 51.23 51.35 50.48 53.17 54.32 54.28 51.05 52.00 50.48 50.21 46.67 45.59 44.27 45.66 45.58 45.24 46.34 46.08 46.09 44.38 44.97 46.42 48.15 50.87 50.49 49.98 50.82 51.89 54.30
53.19 53.23 52.85 53.06 53.52 54.06 54.78 55.23 55.43 55.26 55.19 53.97 53.02 51.26 45.57 43.34 51.89 50.87 50.44 50.50 50.78 52.32 50.10 52.31 53.50 49.75 48.29 44.31 47.50 45.95 41.61 44.02 44.69 45.47 44.63 46.25 42.08 42.72 47.88 49.38 48.58 49.97 50.76 51.74 52.52
52.14 52.27 52.26 52.17 53.09 53.49 54.00 54.80 55.05 55.21 54.64 54.05 53.44 50.19 41.63 51.75 54.33 50.80 50.48 48.87 51.71 51.46 51.75 53.36 52.88 49.81 48.51 48.00 44.64 41.94 42.04 37.69 43.79 44.87 45.21 44.48 37.55 44.20 47.71 47.17 46.98 48.63 49.93 50.79 51.87
51.64 51.61 51.62 51.36 51.89 52.60 53.22 53.64 54.35 54.89 54.84 54.38 49.58 46.88 39.49 52.17 47.43 51.01 51.66 47.39 48.59 50.72 52.30 52.19 50.60 46.74 46.84 41.74 39.36 41.00 35.99 37.54 40.91 45.13 44.02 42.74 39.73 45.27 47.31 46.14 46.13 47.57 48.47 49.30 50.75
51.50 51.14 51.51 50.88 51.04 51.64 52.32 52.67 53.27 53.28 53.22 51.79 49.11 41.53 43.71 41.19 46.91 48.47 51.34 49.62 45.48 48.13 48.16 46.86 44.88 40.80 41.30 39.21 31.87 35.11 36.24 38.08 39.16 42.72 42.60 41.45 40.75 45.20 45.92 45.28 45.66 46.60 47.55 48.58 49.31
51.43 51.31 50.88 50.10 50.61 51.06 51.04 49.05 44.18 42.60 45.79 40.49 39.83 40.40 42.22 46.56 49.04 46.16 48.48 46.33 45.97 44.39 38.42 43.28 37.78 35.06 37.96 40.13 40.45 40.09 38.08 37.60 40.56 41.94 40.32 40.31 40.79 43.48 46.09 46.46 46.40 47.16 48.28 49.08 49.74
50.76 50.35 50.36 50.17 50.39 50.45 50.21 43.59 43.72 44.21 38.15 44.23 42.03 42.75 44.85 46.32 40.12 43.74 48.02 40.54 40.41 35.79 40.93 38.24 33.59 39.90 41.39 40.86 39.08 38.54 36.76 36.59 40.55 40.18 38.60 39.31 39.69 43.19 44.64 45.18 46.18 46.57 47.43 48.50 49.65
49.74 50.02 50.01 49.89 49.76 48.86 46.07 44.30 49.42 47.81 35.55 39.15 41.61 41.08 42.85 43.96 39.83 40.96 44.18 42.01 38.23 36.08 36.95 35.34 37.29 41.00 39.48 38.22 36.68 36.54 35.80 35.59 36.37 38.44 39.83 37.79 36.07 38.81 42.62 44.75 45.60 46.71 47.68 48.31 48.60
48.33 49.26 49.41 49.29 44.77 46.13 42.70 47.55 48.79 47.63 30.07 32.13 36.65 39.13 41.81 41.72 36.78 45.42 45.53 42.20 38.76 35.05 36.73 36.73 40.82 37.00 37.27 36.00 37.71 32.33 38.99 38.35 36.80 34.01 30.22 38.09 29.63 37.76 39.92 41.55 42.19 43.31 44.77 45.87 46.82
46.87 46.28 46.63 48.83 42.39 41.82 44.20 47.16 47.17 42.14 15.00 34.96 36.31 44.01 42.04 37.72 40.09 39.26 45.82 42.21 35.73 35.35 36.45 33.65 35.38 36.04 33.40 36.02 38.62 34.51 39.31 37.68 36.86 34.21 33.52 33.80 30.00 35.14 39.42 36.83 39.25 41.81 43.37 44.70 46.06
46.70 46.26 46.10 45.89 44.30 45.08 47.32 47.28 42.61 25.02 16.84 30.35 34.70 34.58 34.79 36.61 38.23 40.29 40.01 43.10 41.45 36.58 37.52 36.19 39.40 37.90 36.98 38.15 39.00 39.66 36.35 35.75 35.56 33.57 25.73 31.34 31.56 32.54 36.21 37.17 39.23 41.75 43.15 44.32 45.56
46.15 46.05 43.13 46.03 39.36 45.63 46.55 40.20 24.63 19.00 32.29 27.71 29.22 33.59 33.11 32.09 33.56 35.57 33.97 32.75 30.73 26.89 27.33 33.00 33.13 36.64 38.05 34.50 37.99 36.48 32.69 24.52 22.63 23.22 22.71 33.42 30.37 33.19 38.65 39.81 40.55 41.63 42.83 44.25 45.63
45.64 45.83 44.59 44.66 45.00 45.82 41.89 29.06 17.01 25.23 27.06 31.93 32.59 32.33 29.14 32.35 32.26 34.09 32.62 30.15 34.56 32.98 29.34 25.85 22.82 32.32 36.57 34.44 31.26 33.12 32.43 25.99 17.40 19.96 24.80 32.03 26.81 32.64 39.81 41.62 41.51 42.37 43.82 43.84 44.61
44.83 43.19 40.88 42.86 46.00 43.51 33.21 21.27 20.21 23.70 28.67 29.44 30.72 27.79 27.79 31.35 31.48 31.40 31.19 31.13 33.09 34.47 28.04 26.75 26.55 35.39 36.21 37.25 36.43 31.46 27.93 35.04 27.05 25.31 24.43 28.39 31.73 36.91 38.85 39.15 40.55 40.88 42.09 42.78 43.21
41.40 38.51 36.90 44.16 44.44 39.08 28.28 23.38 24.43 29.46 30.55 30.07 25.52 28.92 25.97 29.28 28.92 29.73 29.94 34.01 32.79 36.15 37.51 32.31 25.30 32.57 34.25 36.88 37.11 34.60 36.39 26.32 27.24 18.77 17.54 26.25 27.77 30.51 34.31 36.69 39.05 39.55 41.12 41.58 42.64
38.54 32.15 39.50 42.88 42.85 31.37 22.19 24.64 26.82 30.81 31.44 27.66 28.04 27.20 28.27 28.28 29.65 28.91 29.72 33.45 35.78 34.69 36.87 33.95 30.64 27.22 32.11 30.95 29.43 30.56 29.18 31.35 31.18 28.19 22.82 22.06 27.29 37.20 36.82 38.16 38.49 39.87 40.88 40.93 41.47
32.70 26.86 40.33 42.55 28.31 30.00 25.33 27.43 31.20 28.91 31.98 30.35 29.49 28.48 29.24 29.94 28.22 28.99 28.69 32.54 37.76 36.62 31.29 34.43 30.32 24.03 27.10 34.04 36.20 34.84 31.12 31.90 25.11 23.34 27.63 27.03 28.01 36.51 38.41 39.63 40.42 39.42 39.32 40.41 41.49
31.61 31.51 38.36 38.30 22.26 24.32 26.82 28.01 29.82 28.07 28.72 28.71 27.50 27.71 27.58 29.57 26.26 29.97 31.44 36.82 37.22 35.77 32.44 33.55 28.06 22.30 23.67 27.51 31.28 28.41 31.92 32.64 32.90 31.49 25.68 23.02 26.79 37.32 37.81 37.27 38.16 38.19 39.11 40.02 40.47
31.37 24.64 29.54 31.94 32.75 25.53 24.19 23.29 24.46 31.38 29.48 30.52 29.04 28.34 25.30 25.56 31.43 28.40 29.93 33.53 35.95 37.11 38.31 36.53 30.89 26.19 21.90 25.39 29.67 25.83 29.17 31.50 30.79 25.58 26.13 27.08 29.60 32.74 34.99 36.07 38.05 38.99 38.81 38.97 38.98
31.96 27.89 31.71 23.01 25.95 26.22 26.89 24.84 23.39 23.23 28.91 29.66 25.65 26.88 23.68 19.45 25.08 27.45 30.94 31.69 34.05 36.59 35.94 33.37 25.74 27.40 29.76 28.73 30.70 29.07 28.39 30.03 27.66 29.96 25.36 28.83 28.95 33.08 35.95 37.12 38.05 37.63 36.97 36.96 36.94
27.79 27.75 27.89 28.64 28.85 25.58 25.87 23.72 23.18 24.27 25.29 23.91 23.27 27.02 25.85 21.12 22.78 23.09 29.16 29.32 28.98 33.45 32.62 33.90 26.56 25.49 21.87 26.06 28.26 26.67 29.41 30.11 30.01 30.08 29.69 30.02 29.16 36.55 38.00 36.34 35.46 34.73 34.22 33.88 33.64
33.79 32.71 30.85 27.84 26.49 24.56 24.44 24.63 24.05 27.46 28.54 29.05 27.10 26.40 24.27 25.64 29.09 30.77 33.02 33.55 33.54 31.56 30.56 30.77 24.72 24.49 20.63 22.28 23.82 20.06 25.89 28.56 29.75 31.67 30.91 26.24 31.62 36.06 33.29 32.86 33.35 32.49 32.31 31.05 30.27
MSLP
1018.12 1018.19 1018.25 1018.37 1018.41 1018.40 1018.55 1018.45 1018.52 1018.45 1018.34 1018.25 1018.19 1018.01 1017.90 1017.66 1017.47 1016.71 1015.80 1015.38 1015.30 1015.55 1015.65 1014.94 1014.59 1014.17 1014.06 1013.42 1013.38 1012.79 1011.10 1008.74 1007.75 1007.59 1007.24 1007.30 1007.86 1008.10 1008.35 1008.10 1008.55 1008.95 1009.63 1010.94 1011.78
1017.82 1017.75 1017.82 1017.88 1017.89 1018.06 1018.16 1018.32 1018.33 1018.39 1018.29 1018.11 1017.98 1017.92 1017.95 1017.78 1017.20 1015.78 1015.10 1015.26 1015.61 1015.68 1015.22 1014.59 1014.25 1014.22 1013.59 1013.28 1013.21 1012.44 1010.83 1009.06 1008.18 1007.81 1008.01 1007.81 1008.28 1007.82 1008.48 1008.31 1008.60 1009.35 1010.74 1011.59 1012.61
1017.44 1017.36 1017.36 1017.47 1017.49 1017.51 1017.65 1017.73 1017.92 1018.04 1018.08 1017.99 1017.97 1017.97 1018.03 1017.60 1016.63 1014.49 1015.29 1015.42 1015.29 1015.40 1015.15 1014.59 1014.05 1014.07 1013.48 1013.06 1012.74 1011.90 1010.50 1009.74 1009.45 1009.60 1009.36 1009.20 1008.93 1008.79 1008.52 1007.92 1008.11 1008.52 1009.85 1011.47 1012.31
1016.91 1017.05 1017.01 1016.95 1017.07 1017.13 1017.16 1017.28 1017.37 1017.62 1017.82 1017.82 1017.88 1017.99 1017.92 1017.46 1016.08 1015.03 1015.41 1015.27 1015.08 1014.75 1014.94 1014.62 1014.21 1013.76 1013.25 1012.51 1012.31 1011.88 1011.18 1010.72 1010.53 1010.69 1010.79 1010.24 1009.49 1009.06 1008.79 1008.27 1009.04 1009.28 1009.39 1010.90 1011.77
1016.47 1016.61 1016.67 1016.66 1016.69 1016.77 1016.71 1016.78 1017.00 1017.16 1017.30 1017.40 1017.51 1017.81 1017.95 1016.87 1015.01 1014.92 1015.43 1015.02 1014.39 1014.33 1014.23 1014.11 1013.71 1013.39 1012.59 1012.13 1012.07 1011.69 1011.31 1011.17 1011.15 1011.63 1011.41 1011.04 1010.27 1009.66 1009.01 1008.93 1009.52 1009.98 1010.40 1010.65 1011.06
1015.91 1016.02 1016.26 1016.30 1016.28 1016.33 1016.34 1016.38 1016.50 1016.70 1016.82 1016.94 1017.13 1017.44 1017.69 1016.21 1014.60 1014.97 1015.20 1015.07 1014.51 1014.18 1014.03 1013.96 1013.47 1013.06 1012.61 1012.22 1011.90 1011.44 1011.65 1011.10 1011.36 1011.57 1011.59 1011.30 1010.25 1009.96 1009.03 1008.99 1009.18 1009.79 1009.98 1010.35 1010.69
1015.39 1015.46 1015.58 1015.72 1015.83 1015.85 1015.86 1015.85 1016.04 1016.26 1016.48 1016.80 1017.02 1017.12 1016.62 1014.96 1014.71 1014.78 1015.18 1015.00 1015.12 1014.71 1014.00 1013.94 1013.77 1013.39 1013.04 1012.69 1012.42 1011.95 1012.09 1011.53 1010.91 1011.29 1011.37 1011.48 1010.19 1009.28 1009.11 1009.25 1009.33 1009.34 1009.64 1009.93 1010.21
1014.78 1014.91 1015.15 1015.24 1015.31 1015.44 1015.39 1015.34 1015.49 1015.74 1016.04 1016.44 1016.76 1016.69 1015.20 1014.16 1014.55 1014.73 1014.91 1014.83 1014.97 1015.03 1014.97 1014.39 1014.44 1014.20 1013.31 1012.85 1012.69 1012.43 1012.07 1010.80 1010.14 1010.86 1011.25 1011.48 1008.50 1008.56 1008.64 1008.77 1008.71 1009.06 1009.31 1009.49 1009.81
1014.04 1014.11 1014.40 1014.66 1014.76 1014.88 1014.94 1014.94 1015.05 1015.26 1015.55 1015.98 1016.58 1016.36 1014.59 1013.42 1013.79 1013.98 1014.34 1014.61 1014.65 1014.80 1014.89 1014.87 1014.68 1014.04 1013.83 1013.18 1012.53 1011.66 1010.33 1010.35 1010.02 1010.36 1010.64 1010.76 1008.95 1008.35 1008.27 1008.61 1008.40 1008.45 1008.87 1008.98 1009.22
1013.13 1013.36 1013.57 1013.83 1014.20 1014.46 1014.56 1014.68 1014.43 1014.82 1015.16 1015.73 1015.78 1015.94 1014.16 1013.25 1013.56 1013.56 1013.98 1014.32 1014.29 1014.42 1014.67 1014.71 1014.42 1013.54 1013.10 1012.31 1009.78 1010.64 1010.50 1010.32 1009.48 1010.15 1010.41 1009.98 1009.10 1008.38 1008.97 1009.12 1008.86 1008.73 1008.67 1008.86 1009.18
1012.23 1012.47 1012.71 1013.01 1013.47 1013.91 1014.34 1014.57 1014.78 1014.71 1014.19 1013.47 1013.50 1012.55 1012.08 1012.85 1013.63 1013.37 1013.74 1014.42 1014.29 1013.99 1013.65 1013.94 1013.75 1011.43 1010.68 1011.41 1011.11 1010.00 1010.15 1009.80 1009.84 1010.57 1010.85 1010.16 1009.50 1008.85 1008.71 1008.72 1008.81 1008.82 1008.62 1008.61 1008.77
1011.35 1011.71 1011.92 1012.26 1012.64 1013.19 1013.50 1012.75 1012.41 1013.49 1013.17 1013.08 1013.39 1013.14 1012.70 1012.61 1013.04 1013.07 1013.72 1013.73 1013.48 1012.42 1013.32 1013.66 1012.02 1010.61 1011.65 1011.26 1011.27 1011.08 1010.74 1010.37 1010.30 1011.01 1011.44 1010.58 1009.12 1008.83 1008.65 1008.19 1008.27 1008.22 1008.04 1008.06 1008.18
1010.46 1010.78 1011.19 1011.62 1012.07 1012.45 1012.28 1011.64 1012.56 1013.37 1013.43 1012.19 1012.08 1012.24 1012.25 1012.59 1011.87 1012.07 1012.92 1012.61 1012.19 1012.29 1011.66 1011.20 1010.53 1011.14 1011.34 1011.27 1011.20 1010.96 1010.75 1011.11 1011.00 1011.66 1011.54 1010.95 1008.58 1008.07 1007.56 1007.48 1007.60 1007.65 1007.73 1007.68 1007.66
1009.71 1009.94 1010.30 1010.97 1011.80 1011.34 1011.07 1011.79 1012.64 1013.52 1012.46 1011.94 1011.56 1010.90 1011.42 1012.02 1011.49 1011.03 1011.97 1011.83 1011.81 1011.10 1011.35 1010.98 1010.78 1011.02 1011.23 1011.11 1011.46 1011.12 1011.37 1011.44 1011.48 1012.09 1010.77 1010.56 1007.31 1005.99 1005.71 1005.93 1006.84 1007.08 1007.12 1007.07 1007.28
1009.06 1009.21 1009.73 1009.62 1010.34 1010.39 1010.60 1011.37 1012.80 1013.44 1010.33 1009.50 1010.16 1010.31 1010.12 1010.90 1009.47 1010.40 1011.47 1011.42 1010.75 1010.75 1011.08 1009.85 1010.12 1010.35 1011.15 1010.45 1011.71 1011.28 1011.43 1011.53 1012.13 1012.06 1011.65 1010.23 1009.51 1005.75 1005.86 1006.07 1006.34 1006.43 1006.55 1006.86 1007.23
1007.94 1008.34 1009.26 1008.35 1009.41 1009.68 1010.10 1010.86 1012.35 1011.49 1007.53 1008.17 1008.78 1009.21 1009.75 1009.87 1009.44 1009.69 1010.90 1011.19 1010.97 1010.91 1010.54 1010.35 1010.61 1010.65 1010.34 1011.52 1011.60 1012.00 1012.32 1012.48 1012.74 1012.61 1011.31 1008.94 1008.92 1005.58 1005.12 1005.52 1005.58 1006.03 1006.63 1007.34 1007.76
1006.99 1007.46 1008.35 1008.08 1008.48 1009.83 1010.20 1011.02 1010.19 1007.58 1006.92 1007.77 1007.86 1008.10 1008.27 1008.85 1009.87 1010.04 1010.02 1010.39 1009.82 1010.20 1009.97 1010.23 1010.67 1011.00 1011.16 1011.24 1011.70 1012.14 1012.14 1012.31 1012.69 1011.88 1009.50 1008.45 1008.34 1005.53 1005.04 1005.39 1005.63 1006.25 1007.19 1007.86 1008.25
1006.36 1006.53 1007.03 1007.59 1008.63 1009.02 1009.48 1010.66 1008.10 1006.27 1006.36 1006.28 1006.74 1007.53 1007.32 1007.86 1008.84 1009.22 1009.43 1009.46 1009.33 1008.91 1008.77 1009.37 1010.08 1010.08 1010.60 1010.00 1010.48 1010.64 1010.49 1009.83 1010.03 1009.92 1008.68 1008.47 1006.95 1005.52 1005.29 1005.64 1006.39 1006.57 1007.37 1008.26 1008.91
1005.85 1006.16 1006.74 1007.27 1007.86 1008.65 1008.47 1007.74 1007.48 1007.31 1006.49 1006.56 1005.95 1006.26 1006.77 1007.15 1007.46 1008.21 1007.83 1007.72 1007.83 1008.09 1007.86 1008.22 1008.29 1008.78 1009.68 1009.88 1010.12 1010.53 1010.56 1008.87 1009.93 1009.81 1008.87 1007.61 1006.95 1006.02 1006.28 1006.34 1006.35 1007.53 1008.13 1008.58 1009.23
1005.46 1005.98 1006.08 1006.52 1007.26 1008.20 1007.06 1006.54 1007.20 1007.04 1006.98 1006.93 1005.83 1004.99 1005.11 1005.77 1006.40 1006.55 1006.59 1006.26 1006.47 1006.99 1007.43 1007.36 1008.20 1008.83 1009.69 1010.37 1009.87 1009.44 1009.59 1010.52 1010.43 1009.31 1008.28 1006.66 1006.33 1005.13 1005.57 1005.84 1006.57 1007.46 1008.32 1009.18 1009.72
1005.34 1005.48 1005.12 1006.29 1006.38 1007.03 1005.93 1005.77 1006.61 1006.68 1006.94 1007.41 1005.61 1005.32 1004.85 1004.77 1004.99 1005.01 1004.82 1004.84 1005.48 1006.25 1007.09 1007.74 1007.99 1009.49 1010.06 1009.42 1008.41 1009.60 1009.48 1009.52 1009.30 1008.64 1007.12 1006.40 1005.32 1004.84 1005.22 1005.95 1006.68 1007.85 1008.88 1009.76 1010.28
1004.83 1005.31 1004.87 1005.66 1005.91 1005.37 1005.55 1005.46 1005.86 1006.03 1006.49 1006.57 1006.78 1006.16 1004.99 1004.49 1004.50 1004.30 1003.79 1003.92 1004.30 1005.41 1006.12 1007.31 1008.31 1008.90 1008.65 1009.26 1009.29 1009.07 1008.99 1009.08 1008.38 1008.18 1007.64 1006.84 1005.76 1006.01 1005.89 1006.31 1007.05 1008.68 1009.87 1010.59 1010.90
1004.48 1005.15 1005.64 1005.50 1005.53 1005.15 1005.24 1005.05 1005.28 1005.48 1005.83 1006.28 1006.33 1006.96 1006.34 1004.47 1004.43 1004.17 1003.65 1003.60 1004.04 1004.78 1005.67 1007.51 1008.43 1008.75 1009.58 1010.39 1009.98 1009.47 1008.76 1008.77 1008.68 1008.17 1007.49 1007.32 1006.37 1006.67 1007.22 1007.92 1008.68 1009.55 1010.47 1011.05 1011.58
1003.70 1004.35 1005.49 1005.47 1004.98 1004.99 1004.99 1005.25 1005.05 1005.10 1005.36 1005.68 1005.89 1006.57 1006.88 1005.87 1004.50 1004.28 1003.96 1003.84 1004.20 1004.42 1005.93 1007.16 1007.68 1007.51 1007.29 1007.36 1008.26 1009.02 1008.76 1008.69 1008.65 1008.60 1007.59 1006.93 1006.78 1007.26 1007.55 1007.93 1008.63 1009.46 1010.91 1011.69 1012.11
1003.07 1002.99 1002.94 1003.76 1004.14 1004.45 1004.71 1004.84 1004.93 1004.71 1005.17 1005.32 1005.44 1005.59 1006.88 1007.30 1005.61 1004.33 1004.42 1004.41 1004.68 1005.02 1006.20 1007.14 1007.51 1008.36 1008.38 1008.53 1007.58 1007.99 1008.30 1008.53 1008.34 1007.73 1008.07 1007.16 1007.14 1007.15 1007.24 1008.04 1009.22 1010.67 1011.99 1012.79 1013.28
1002.48 1002.95 1003.07 1002.59 1003.07 1003.69 1004.42 1004.30 1004.25 1004.71 1004.79 1005.00 1005.48 1005.55 1006.31 1007.05 1007.28 1006.07 1004.81 1004.46 1004.24 1005.18 1006.30 1007.19 1007.70 1008.84 1009.61 1009.51 1008.82 1008.33 1008.09 1008.20 1008.12 1008.08 1008.09 1007.97 1007.23 1007.84 1008.35 1009.98 1010.96 1012.24 1013.41 1014.27 1014.94
1001.74 1002.39 1001.81 1001.79 1002.64 1002.90 1002.89 1003.46 1003.51 1003.65 1004.02 1004.37 1004.83 1005.37 1005.40 1005.03 1005.78 1006.10 1006.07 1004.98 1004.33 1004.38 1005.74 1006.84 1008.21 1009.09 1009.95 1010.26 1009.75 1009.28 1007.75 1007.51 1007.63 1007.79 1007.76 1007.71 1007.36 1008.79 1009.91 1011.19 1012.48 1013.81 1014.82 1015.59 1016.38
Wind_Speed
14 15 14 13 13 12 10 9 9 7 6 5 8 4 5 8 12 14 15 4 2 3 4 3 6 6 6 7 5 4 9 13 18 15 13 3 7 5 3 7 4 4 3 6 12
15 15 16 16 15 14 10 11 12 9 5 4 6 5 5 7 13 17 5 5 7 7 7 9 9 9 8 9 6 11 12 18 16 13 9 6 8 5 5 10 9 7 6 7 9
15 16 15 16 16 16 15 15 14 11 6 1 6 5 4 9 11 2 6 3 7 10 11 8 8 11 14 10 10 8 16 17 3 8 8 11 6 4 7 10 10 11 12 10 9
15 16 17 15 15 17 17 16 14 11 8 5 4 6 2 7 7 4 5 5 6 11 14 9 10 13 11 15 15 11 14 18 6 3 6 11 7 8 11 7 6 3 4 11 10
15 13 13 13 14 17 18 18 15 14 14 12 10 3 4 9 10 5 5 2 4 13 19 16 15 16 14 13 15 17 16 9 15 6 9 6 11 11 11 11 3 4 2 7 8
14 13 13 14 15 16 18 19 19 16 15 14 12 8 7 15 4 3 2 1 2 10 16 16 10 16 8 15 17 3 18 18 11 12 13 9 15 6 11 12 10 9 8 7 6
17 14 14 16 16 16 18 19 20 19 16 15 11 11 14 16 2 2 3 2 2 3 11 14 13 10 9 7 15 14 10 13 16 15 11 8 21 25 20 9 6 13 11 7 8
20 17 17 17 18 16 16 19 19 19 16 16 12 13 14 10 19 10 7 5 5 4 5 9 8 11 12 2 3 12 15 18 12 16 9 11 21 17 23 22 22 18 14 12 11
23 20 18 18 16 15 14 14 16 19 19 17 11 13 14 3 18 15 18 12 9 8 7 4 11 13 12 12 12 15 15 19 19 14 10 18 13 17 14 10 14 17 17 17 15
22 21 20 19 16 15 13 12 9 13 15 10 11 9 11 9 8 18 13 14 9 12 8 9 9 13 18 17 19 14 18 19 16 15 17 17 20 10 5 4 11 14 13 12 12
23 23 19 19 19 16 12 5 7 6 14 9 6 7 5 14 9 11 14 14 12 14 16 16 14 24 25 24 22 17 12 19 17 9 8 19 20 19 17 17 14 12 10 11 11
25 25 23 21 20 19 14 17 16 3 10 22 13 23 3 15 10 14 16 18 18 23 21 12 23 25 18 20 22 22 19 17 9 1 4 14 19 15 16 19 18 19 19 17 16
23 25 24 22 21 15 18 24 15 3 6 9 22 22 28 16 13 20 21 17 23 22 27 26 6 22 20 16 20 21 24 17 14 5 12 12 23 23 25 25 21 19 18 18 17
18 22 24 21 14 14 20 18 9 6 9 10 12 9 19 9 15 16 20 14 15 26 25 25 26 3 22 20 19 20 20 17 14 8 11 7 11 10 3 13 13 14 16 18 17
19 15 26 29 6 15 14 13 12 2 16 15 15 7 16 18 11 20 23 19 19 15 22 18 20 26 16 26 19 15 15 20 17 14 14 17 8 9 14 12 13 13 12 11 8
23 20 20 13 7 11 10 12 8 11 12 8 9 15 15 20 23 17 22 15 13 16 20 24 2 15 24 16 18 7 6 6 11 12 14 24 16 12 14 12 5 6 5 6 8
24 22 15 10 12 10 10 7 12 18 9 9 8 15 28 18 26 12 22 23 15 13 15 21 17 7 9 20 14 17 17 8 8 10 14 10 15 18 6 5 10 12 10 9 9
20 20 15 10 7 14 9 7 15 20 17 1 16 16 27 23 17 19 22 21 26 23 14 18 16 23 17 21 12 26 22 8 11 12 13 16 12 11 11 16 9 7 12 11 11
17 9 7 10 14 7 8 16 9 7 3 8 19 19 15 19 11 19 22 27 27 26 18 19 19 19 16 18 19 23 22 24 7 2 5 10 11 11 6 8 15 12 11 12 10
7 5 4 16 14 9 8 18 8 8 7 8 17 14 22 21 19 22 23 25 27 30 25 8 15 12 16 17 18 15 25 13 8 9 10 12 15 8 14 14 13 14 13 10 7
5 4 6 12 10 8 12 9 9 10 10 9 12 14 18 16 22 23 20 15 29 29 24 14 13 7 15 19 21 15 14 16 14 11 11 12 12 9 10 13 13 15 12 7 6
4 5 5 12 8 5 12 20 12 16 17 8 3 12 16 20 19 21 26 25 27 27 30 22 9 10 24 11 18 23 21 25 11 19 13 10 6 1 8 3 15 13 6 5 6
6 4 1 7 8 13 1 4 10 15 18 11 7 2 12 17 14 19 22 21 16 25 22 16 7 7 9 2 7 9 20 20 19 11 14 13 9 7 12 11 8 6 5 4 4
4 7 4 4 6 11 11 7 11 13 15 12 7 6 6 9 10 19 18 8 10 22 22 20 6 16 14 11 13 15 17 21 18 13 15 14 14 12 11 9 7 2 4 6 7
6 6 4 9 13 14 13 8 10 11 7 11 3 8 6 5 9 10 18 12 11 17 21 13 14 12 7 7 11 17 22 21 18 22 16 18 18 17 15 10 7 7 4 5 6
4 6 4 8 13 20 16 15 18 13 10 10 8 12 13 10 10 11 11 12 12 20 20 11 8 5 4 3 3 10 18 22 22 20 17 16 21 13 10 6 4 2 3 3 4
3 2 2 11 15 15 17 21 24 22 18 15 18 12 13 18 14 11 14 5 7 21 21 12 9 10 9 3 5 4 17 20 19 20 22 20 21 15 6 4 4 2 0 2 4
Wind_Direction
253 239 230 242 247 256 276 284 289 313 297 290 296 325 343 337 310 276 262 258 21 32 250 229 219 204 213 214 235 279 236 235 230 231 249 158 229 150 12 258 207 168 353 85 114
266 258 244 244 232 241 241 268 273 266 288 331 321 342 336 319 290 269 262 280 273 288 236 209 203 194 201 214 208 213 233 241 251 248 242 247 248 253 223 210 220 200 117 122 135
273 270 265 250 246 225 221 239 254 262 241 36 334 289 304 294 289 204 45 296 259 225 244 249 250 206 227 216 208 218 241 242 274 267 303 269 247 220 253 245 233 216 181 163 162
272 278 269 260 258 250 240 236 233 230 248 247 268 295 279 277 265 101 355 322 274 225 218 210 212 202 220 213 217 245 237 258 296 249 254 244 286 249 237 255 12 46 119 166 183
266 271 269 270 267 263 258 242 230 222 212 226 239 278 251 234 247 126 316 303 254 192 200 205 208 207 223 226 229 230 244 233 240 248 257 278 253 259 256 247 153 130 152 186 194
258 259 266 268 269 266 259 245 232 224 231 230 237 220 230 245 29 227 300 293 22 195 202 210 221 218 270 247 231 230 231 237 226 241 241 249 252 230 246 241 212 215 219 211 209
263 266 269 270 265 263 260 247 238 228 230 236 239 227 234 233 238 188 202 146 45 286 211 214 228 223 219 249 234 256 244 233 239 229 245 240 253 242 243 215 223 232 231 223 225
252 250 258 261 259 257 260 254 241 233 225 225 232 235 246 237 232 225 218 240 249 239 249 239 223 251 239 288 187 229 236 244 219 204 218 207 256 243 230 235 243 234 234 228 223
254 252 244 252 255 253 256 258 246 237 222 217 218 221 251 214 205 224 227 238 221 214 212 243 209 221 198 223 230 218 240 227 238 192 201 205 251 241 227 229 242 242 249 248 244
245 242 234 236 246 246 248 251 254 245 222 221 224 198 243 213 196 216 204 199 193 193 195 203 206 209 222 207 219 222 226 247 238 196 219 218 239 234 195 241 244 252 250 239 239
242 233 230 232 234 233 242 234 219 226 213 204 184 224 9 195 155 196 188 202 210 207 202 198 207 215 212 218 228 267 261 233 241 141 237 242 252 243 243 243 235 249 241 238 237
248 239 233 229 226 224 226 225 231 97 231 215 220 211 236 163 178 192 181 187 193 205 196 183 225 226 228 228 229 236 247 257 213 46 229 266 263 253 251 248 249 246 248 248 254
252 239 234 229 228 222 227 232 233 149 249 217 205 202 206 193 205 191 189 199 198 205 203 207 234 214 227 223 228 226 233 231 233 196 239 275 270 254 242 243 244 245 247 249 247
254 255 229 221 230 222 229 231 221 163 243 200 199 226 206 205 228 204 201 186 209 217 211 222 221 167 217 219 223 229 229 239 231 232 243 184 278 256 236 210 232 244 238 240 244
236 238 287 199 147 201 213 213 144 190 236 173 172 191 166 189 127 201 193 205 208 205 202 209 222 220 218 224 213 237 246 218 233 234 268 237 256 248 231 209 233 232 220 209 206
231 230 232 209 186 213 184 183 152 220 214 184 137 171 166 202 209 166 184 205 225 205 215 219 204 231 218 228 222 198 180 187 226 232 238 236 228 259 226 209 207 127 142 150 151
238 225 221 198 205 190 149 154 216 224 155 166 176 172 185 187 199 178 178 194 180 184 201 213 193 196 222 205 206 183 179 176 208 209 237 227 216 239 252 145 208 158 137 132 140
233 228 225 203 170 187 165 182 246 215 223 93 172 180 193 181 197 182 178 188 205 204 184 196 212 197 192 211 192 202 194 196 211 206 239 201 214 227 235 231 198 213 142 133 128
233 218 193 218 182 203 186 214 206 242 268 192 197 180 199 195 179 181 191 194 197 200 220 199 220 174 194 196 193 201 215 220 298 127 282 169 249 267 176 201 197 161 158 139 125
209 205 194 192 178 192 222 219 204 231 343 320 216 188 187 185 191 186 187 201 201 207 215 202 214 195 181 203 224 208 213 203 222 208 226 195 227 235 183 197 197 163 161 134 117
195 185 173 178 198 186 222 217 184 227 200 223 255 180 222 182 192 190 190 187 197 198 208 221 231 187 159 201 191 192 212 214 223 239 231 237 216 221 169 193 171 167 137 119 86
153 210 156 159 222 182 216 208 185 204 218 232 254 323 212 204 196 195 205 204 199 188 200 204 233 178 203 175 225 212 212 208 209 215 237 271 238 24 104 175 146 131 129 94 66
171 143 274 176 213 218 128 212 197 181 204 202 205 60 356 210 205 200 202 198 191 186 188 186 200 159 183 188 232 224 223 223 226 243 221 218 220 129 128 119 109 124 82 59 43
164 164 163 198 243 240 222 265 197 194 209 210 191 124 11 315 212 196 205 187 184 195 181 173 175 204 199 228 178 201 207 218 224 227 233 231 234 177 174 180 188 91 36 3 11
190 217 187 185 199 207 205 185 212 193 218 191 205 206 180 317 299 188 190 163 178 199 186 182 207 214 218 344 192 194 200 207 219 223 224 225 235 247 266 277 359 75 353 336 1
180 186 178 212 200 189 207 204 192 202 173 205 227 193 161 201 235 320 171 182 176 187 187 200 200 137 150 305 214 196 207 208 221 226 240 249 261 265 288 108 133 75 336 335 22
110 169 195 198 196 194 197 211 212 204 206 202 205 207 179 209 207 277 280 282 197 180 186 176 144 173 182 173 124 259 216 209 217 217 228 231 247 249 195 151 134 147 2 32 14